#timestamp,LO_Frequency,Hit,StdDev 
1580331615.4,286047001.0,N
1580331635.3,286046998.4,N
1580331655.1,286046996.6,N
1580331656.0,286046996.6,N
1580331675.8,286046995.2,N
1580331695.7,286046996.1,N
1580331715.5,286046994.5,N
1580331735.3,286046992.5,Y
1580331755.2,286046993.3,P
1580331775.0,286046994.6,N
1580331775.9,286046994.6,N
1580331795.8,286046991.7,Y
1580331815.6,286046996.5,P
1580331835.4,286046996.8,P
1580331855.3,286046997.6,P
1580331875.1,286046996.5,Y
1580331895.9,286047000.8,P
1580331915.7,286046998.6,N
1580331935.5,286046998.4,N
1580331955.4,286046997.0,N
1580331975.2,286046999.6,N
1580331995.1,286046999.2,N
1580331996.0,286046999.2,N
1580332015.8,286046999.3,N
1580332035.6,286046996.5,N
1580332055.5,286046999.0,N
1580332075.3,286046996.5,N
1580332095.1,286046998.7,N
1580332115.9,286046999.3,N
1580332135.7,286046997.0,N
1580332155.6,286046996.5,N
1580332175.4,286046998.3,N
1580332195.2,286046998.6,N
1580332215.1,286046998.2,N
1580332216.0,286046998.2,N
1580332235.8,286046999.3,N
1580332255.6,286046996.5,N
1580332275.5,286046999.6,N
1580332295.3,286047001.2,N
1580332315.2,286046999.7,N
1580332335.9,286046998.3,N
1580332355.7,286046998.0,N
1580332375.6,286046999.6,N
1580332395.4,286046996.6,N
1580332415.3,286046999.1,N
1580332435.1,286046999.2,N
1580332436.0,286046999.2,N
1580332455.8,286046999.2,N
1580332475.7,286046996.0,Y
1580332495.5,286046997.4,P
1580332515.4,286046997.7,P
1580332535.2,286047011.9,P
1580332555.0,286046996.0,N
1580332555.9,286046996.0,N
1580332575.8,286046996.4,N
1580332595.6,286046994.5,N
1580332615.4,286046994.2,N
1580332635.3,286046993.5,N
1580332655.1,286046991.9,N
1580332675.9,286046991.8,N
1580332695.7,286046994.5,N
1580332715.5,286046994.0,N
1580332735.4,286046993.6,N
1580332755.2,286046994.0,N
1580332775.0,286046992.0,N
1580332775.9,286046992.0,N
1580332795.8,286046994.2,N
1580332815.6,286046994.2,N
1580332835.5,286046995.3,N
1580332855.3,286046996.1,N
1580332875.1,286046995.8,N
1580332895.9,286046995.4,N
1580332915.7,286046997.1,N
1580332935.5,286046999.1,N
1580332955.4,286047001.1,N
1580332975.2,286046998.9,N
1580332995.0,286046998.2,N
1580332996.0,286046998.2,N
1580333015.8,286046998.1,N
1580333035.6,286047000.8,N
1580333055.5,286046998.7,N
1580333075.3,286047000.7,N
1580333095.1,286047000.5,N
1580333115.9,286047000.6,N
1580333135.7,286046998.2,N
1580333155.6,286047000.0,N
1580333175.4,286047001.5,N
1580333195.2,286047003.7,N
1580333215.1,286047003.9,N
1580333216.0,286047003.9,N
1580333235.8,286047005.9,N
1580333255.7,286047007.4,N
1580333275.5,286047008.8,N
1580333295.3,286047007.9,N
1580333315.2,286047006.2,N
1580333335.0,286047006.3,N
1580333335.9,286047006.3,N
1580333355.8,286047007.4,N
1580333375.6,286047006.5,N
1580333395.4,286047006.5,N
1580333415.3,286047010.8,N
1580333435.1,286047007.7,N
1580333455.8,286047010.4,N
1580333475.7,286047009.4,N
1580333495.5,286047012.2,Y
1580333515.4,286047006.5,P
1580333535.2,286047004.7,P
1580333555.0,286047007.0,P
1580333555.9,286047007.0,Y
1580333575.8,286047001.1,P
1580333595.6,286046998.1,N
1580333615.5,286047000.6,N
1580333635.3,286047002.2,N
1580333655.1,286047002.2,N
1580333675.9,286047002.1,N
1580333695.7,286046998.5,N
1580333715.6,286046998.4,N
1580333735.4,286046999.0,N
1580333755.2,286046998.5,N
1580333775.1,286047001.9,N
1580333776.0,286047001.9,N
1580333795.8,286047001.8,N
1580333815.6,286047001.7,N
1580333835.5,286047004.1,N
1580333855.3,286047003.2,N
1580333875.2,286047003.4,N
1580333895.9,286047004.0,N
1580333915.7,286047003.9,N
1580333935.6,286047001.4,N
1580333955.4,286047003.4,N
1580333975.3,286047005.0,N
1580333995.1,286047003.4,N
1580333996.0,286047003.4,N
1580334015.8,286047004.2,N
1580334035.7,286047003.4,N
1580334055.5,286047005.0,N
1580334075.3,286047003.1,N
1580334095.2,286047005.7,N
1580334115.0,286047005.7,N
1580334115.9,286047005.7,N
1580334135.8,286047005.3,N
1580334155.6,286047003.2,N
1580334175.4,286047002.9,N
1580334195.3,286047007.4,Y
1580334215.1,286047001.5,P
1580334235.8,286046999.9,N
1580334255.7,286047001.5,N
1580334275.5,286047003.8,Y
1580334295.4,286047002.6,P
1580334315.2,286047002.7,P
1580334335.0,286046999.7,N
1580334335.9,286046999.7,N
1580334355.8,286047000.9,N
1580334375.6,286047002.3,N
1580334395.5,286047002.0,N
1580334415.3,286047002.5,N
1580334435.1,286046998.2,N
1580334455.9,286046999.4,N
1580334475.7,286047000.7,N
1580334495.5,286046998.6,N
1580334515.4,286046998.1,N
1580334535.2,286046999.9,N
1580334555.1,286047002.7,N
1580334556.0,286047002.7,N
1580334575.8,286046999.7,N
1580334595.6,286047001.9,N
1580334615.5,286047002.8,N
1580334635.3,286047001.5,N
1580334655.1,286047000.6,N
1580334675.9,286046999.9,N
1580334695.7,286047000.1,N
1580334715.6,286047002.7,N
1580334735.4,286047001.8,N
1580334755.2,286047004.4,N
1580334775.1,286047001.9,N
1580334776.0,286047001.9,N
1580334795.8,286047004.4,N
1580334815.7,286047004.2,N
1580334835.5,286047002.9,N
1580334855.3,286047005.1,N
1580334875.2,286047005.9,Y
1580334895.0,286047004.3,P
1580334895.9,286047004.3,N
1580334915.7,286047003.9,N
1580334935.6,286047004.0,Y
1580334955.4,286046998.2,P
1580334975.3,286046998.4,N
1580334995.1,286046999.4,N
1580334996.0,286046999.4,N
1580335015.8,286046998.4,N
1580335035.7,286047000.4,N
1580335055.5,286047002.3,N
1580335075.3,286047000.1,N
1580335095.2,286046998.3,N
1580335115.0,286046999.1,N
1580335115.9,286046999.1,N
1580335135.8,286047001.2,N
1580335155.6,286047000.5,N
1580335175.4,286046999.0,N
1580335195.3,286046998.9,N
